User: anonymous   Login
Location: Caltech
(34.1382°N, 118.1253°W)
Time: 16:25:18
(UTC-08:00)
Language:

Aureole 3 Rocket - Orbit

View from above orbital plane
View from above orbital plane
View from above satellite
View from above satellite

Ground track
Ground track

The orbit data is extracted from the following two-line orbital elements,

1 12849U 81094B   14353.87089816  .00001530  00000-0  14394-3 0   689
2 12849 082.4936 144.7045 0909151 340.6766 016.1865 13.48578439619139
Epoch (UTC): 19 December 2014 20:54:05
Eccentricity: 0.0909151
inclination: 82.4936°
perigee height: 399 km
apogee height: 1755 km
right ascension of ascending node: 144.7045°
argument of perigee: 340.6766°
revolutions per day: 13.48578439
mean anomaly at epoch: 16.1865°
orbit number at epoch: 61913

The dashed part of the orbit path shows where the satellite is in the earth's shadow,  

DLR